N2505 TNCC-TNCB

Flight info

Callsign N2505
Flight time 0h 19m
Altitude 2999
Route DCT PJB DCT
Aircraft C172/L-VGD/A

Departure

Time 2026-04-17 00:44
Airport Hato International Airport (TNCC)

Arrival

Time 2026-04-17 01:04
Airport Flamingo International Airport (TNCB)
Time Latitude Longitude Altitude Speed Heading
2026-04-17 00:38 12.18482 -68.95452 33 ft 0 kts 105°
2026-04-17 00:40 12.18484 -68.95443 33 ft 6 kts 46°
2026-04-17 00:40 12.18560 -68.95459 33 ft 16 kts 323°
2026-04-17 00:40 12.18623 -68.95582 33 ft 24 kts 285°
2026-04-17 00:40 12.18668 -68.95768 33 ft 29 kts 282°
2026-04-17 00:41 12.18705 -68.95915 33 ft 13 kts 315°
2026-04-17 00:41 12.18777 -68.95930 33 ft 10 kts 12°
2026-04-17 00:41 12.18793 -68.95926 33 ft 0 kts 12°
2026-04-17 00:42 12.18838 -68.95916 33 ft 8 kts 12°
2026-04-17 00:43 12.18869 -68.95878 33 ft 5 kts 97°
2026-04-17 00:43 12.18831 -68.95702 33 ft 55 kts 101°
2026-04-17 00:43 12.18724 -68.95169 86 ft 89 kts 101°
2026-04-17 00:43 12.18596 -68.94532 284 ft 94 kts 101°
2026-04-17 00:44 12.18562 -68.93850 476 ft 97 kts 85°
2026-04-17 00:44 12.18627 -68.93156 664 ft 99 kts 84°
2026-04-17 00:44 12.18692 -68.92458 842 ft 100 kts 82°
2026-04-17 00:44 12.18923 -68.91791 1024 ft 100 kts 64°
2026-04-17 00:45 12.19150 -68.91120 1202 ft 100 kts 73°
2026-04-17 00:45 12.19282 -68.90417 1377 ft 101 kts 80°
2026-04-17 00:45 12.19345 -68.89699 1552 ft 102 kts 84°
2026-04-17 00:45 12.19359 -68.88976 1726 ft 102 kts 88°
2026-04-17 00:46 12.19337 -68.88251 1899 ft 102 kts 90°
2026-04-17 00:46 12.19197 -68.87538 2075 ft 103 kts 104°
2026-04-17 00:46 12.18980 -68.86838 2250 ft 103 kts 105°
2026-04-17 00:46 12.18704 -68.86157 2424 ft 104 kts 117°
2026-04-17 00:47 12.18344 -68.85513 2599 ft 104 kts 118°
2026-04-17 00:47 12.17980 -68.84869 2772 ft 105 kts 118°
2026-04-17 00:47 12.17613 -68.84218 2924 ft 107 kts 118°
2026-04-17 00:47 12.17215 -68.83562 3009 ft 114 kts 121°
2026-04-17 00:48 12.16773 -68.82853 3022 ft 122 kts 121°
2026-04-17 00:48 12.16309 -68.82104 3012 ft 127 kts 121°
2026-04-17 00:48 12.15852 -68.81324 3004 ft 129 kts 118°
2026-04-17 00:48 12.15438 -68.80512 3001 ft 129 kts 114°
2026-04-17 00:49 12.15019 -68.79696 3000 ft 129 kts 118°
2026-04-17 00:49 12.14559 -68.78916 3000 ft 129 kts 121°
2026-04-17 00:49 12.14077 -68.78137 3000 ft 129 kts 121°
2026-04-17 00:49 12.13596 -68.77360 3000 ft 129 kts 121°
2026-04-17 00:50 12.13129 -68.76572 3000 ft 129 kts 118°
2026-04-17 00:50 12.12713 -68.75759 3000 ft 129 kts 114°
2026-04-17 00:50 12.12370 -68.74912 3000 ft 129 kts 108°
2026-04-17 00:50 12.12117 -68.74038 3000 ft 128 kts 101°
2026-04-17 00:51 12.11965 -68.73144 3000 ft 127 kts 94°
2026-04-17 00:51 12.11914 -68.72246 3000 ft 127 kts 87°
2026-04-17 00:51 12.11956 -68.71361 3000 ft 126 kts 81°
2026-04-17 00:51 12.12078 -68.70478 3000 ft 125 kts 76°
2026-04-17 00:52 12.12261 -68.69610 3000 ft 125 kts 72°
2026-04-17 00:52 12.12484 -68.68755 3000 ft 124 kts 70°
2026-04-17 00:52 12.12726 -68.67905 3000 ft 124 kts 69°
2026-04-17 00:52 12.12969 -68.67055 3000 ft 124 kts 70°
2026-04-17 00:53 12.13192 -68.66200 3000 ft 125 kts 72°
2026-04-17 00:53 12.13382 -68.65335 3000 ft 125 kts 75°
2026-04-17 00:53 12.13528 -68.64456 3000 ft 125 kts 78°
2026-04-17 00:53 12.13621 -68.63567 3000 ft 126 kts 82°
2026-04-17 00:54 12.13661 -68.62672 3000 ft 126 kts 85°
2026-04-17 00:54 12.13652 -68.61773 3000 ft 127 kts 89°
2026-04-17 00:54 12.13600 -68.60884 3000 ft 127 kts 91°
2026-04-17 00:54 12.13518 -68.59984 3000 ft 127 kts 93°
2026-04-17 00:55 12.13416 -68.59086 3000 ft 127 kts 94°
2026-04-17 00:55 12.13307 -68.58188 3000 ft 127 kts 94°
2026-04-17 00:55 12.13204 -68.57287 3000 ft 127 kts 93°
2026-04-17 00:55 12.13117 -68.56386 3000 ft 127 kts 92°
2026-04-17 00:56 12.13051 -68.55484 3000 ft 127 kts 90°
2026-04-17 00:56 12.13011 -68.54583 3000 ft 127 kts 89°
2026-04-17 00:56 12.12997 -68.53681 3000 ft 127 kts 87°
2026-04-17 00:56 12.13005 -68.52793 3000 ft 126 kts 85°
2026-04-17 00:57 12.13032 -68.51892 3000 ft 126 kts 84°
2026-04-17 00:57 12.13070 -68.50978 2922 ft 131 kts 84°
2026-04-17 00:57 12.13117 -68.50024 2768 ft 137 kts 84°
2026-04-17 00:57 12.13164 -68.49052 2599 ft 139 kts 84°
2026-04-17 00:58 12.13202 -68.48056 2426 ft 140 kts 85°
2026-04-17 00:58 12.13225 -68.47058 2252 ft 141 kts 86°
2026-04-17 00:58 12.13234 -68.46058 2078 ft 140 kts 88°
2026-04-17 00:58 12.13230 -68.45056 1903 ft 140 kts 88°
2026-04-17 00:59 12.13217 -68.44071 1730 ft 140 kts 89°
2026-04-17 00:59 12.13210 -68.43066 1553 ft 139 kts 86°
2026-04-17 00:59 12.13253 -68.42086 1416 ft 137 kts 85°
2026-04-17 00:59 12.13304 -68.41121 1309 ft 134 kts 85°
2026-04-17 01:00 12.13344 -68.40188 1232 ft 132 kts 86°
2026-04-17 01:00 12.13381 -68.39251 1155 ft 131 kts 86°
2026-04-17 01:00 12.13455 -68.38325 1079 ft 130 kts 81°
2026-04-17 01:00 12.13584 -68.37412 1019 ft 129 kts 80°
2026-04-17 01:01 12.13717 -68.36504 967 ft 128 kts 80°
2026-04-17 01:01 12.13877 -68.35607 918 ft 128 kts 76°
2026-04-17 01:01 12.14069 -68.34726 890 ft 127 kts 77°
2026-04-17 01:01 12.14198 -68.33838 864 ft 126 kts 85°
2026-04-17 01:02 12.14210 -68.32950 816 ft 128 kts 91°
2026-04-17 01:02 12.14159 -68.32062 734 ft 118 kts 94°
2026-04-17 01:02 12.14093 -68.31262 600 ft 106 kts 94°
2026-04-17 01:02 12.14042 -68.30546 426 ft 97 kts 93°
2026-04-17 01:03 12.14013 -68.29910 294 ft 85 kts 92°
2026-04-17 01:03 12.13996 -68.29307 166 ft 83 kts 92°
2026-04-17 01:03 12.13984 -68.28926 72 ft 79 kts 92°
2026-04-17 01:03 12.13968 -68.28429 24 ft 59 kts 92°
2026-04-17 01:04 12.13956 -68.28187 24 ft 7 kts 97°
2026-04-17 01:04 12.13955 -68.28161 24 ft 5 kts 307°
2026-04-17 01:04 12.13962 -68.28216 24 ft 7 kts 282°
2026-04-17 01:04 12.14009 -68.28245 24 ft 10 kts
2026-04-17 01:05 12.14075 -68.28243 24 ft 7 kts
2026-04-17 01:05 12.14111 -68.28247 24 ft 1 kts 304°
2026-04-17 01:05 12.14120 -68.28257 24 ft 0 kts 242°